Wind_Speed
23 23 23 24 24 24 24 24 24 24 24 24 24 24 24 23 23 23 22 22 22 22 22 23 23 23 23 23 24 23 22 22 22 21 17 16 17 15 14 14 14 14 14 13 10 8 10 11 12 13 13 13 13 12 14 16 14 11 12 14 17 18 11 3 6 6 4 3 2 1 7 10 4 5 3 3 4 11 14 10 11 13 15 14 14 15 14 15
22 22 22 22 23 22 22 22 22 22 22 22 22 22 22 22 21 21 20 20 20 21 21 22 22 22 22 23 23 23 23 23 23 19 14 15 16 15 15 15 14 14 14 13 10 9 10 11 12 13 13 13 12 12 12 13 13 15 17 18 20 17 9 0 7 6 4 0 6 5 4 7 1 3 2 3 2 10 12 10 10 13 14 14 12 12 12 12
22 22 22 22 22 21 21 21 21 21 20 21 20 20 20 20 20 19 19 18 18 19 20 20 20 20 20 21 21 21 21 21 22 18 14 16 15 14 16 15 15 14 14 14 12 11 11 13 13 14 14 13 13 11 11 11 11 15 18 22 19 14 6 7 8 8 9 3 7 7 8 8 3 3 1 6 3 8 11 8 8 9 11 11 10 9 10 11
23 22 22 22 22 21 21 20 20 20 20 20 19 19 19 19 19 18 18 17 18 18 19 19 18 18 18 19 19 19 19 19 20 17 15 17 16 16 16 16 16 15 14 15 14 13 14 16 15 14 14 13 12 10 10 10 10 14 18 21 18 13 12 9 8 10 11 8 6 6 5 6 5 7 2 7 4 9 14 7 6 8 8 9 10 11 10 10
23 23 23 22 22 21 21 20 20 20 19 19 19 19 18 18 17 17 17 17 17 18 18 18 17 17 18 18 18 17 17 16 16 16 15 15 16 16 16 17 16 15 16 16 16 14 15 18 15 12 15 13 12 10 10 11 11 14 17 17 14 13 13 10 9 10 11 12 10 6 4 2 5 8 3 6 3 8 10 6 6 8 9 8 6 9 10 9
24 23 23 22 22 22 21 20 20 20 19 19 18 18 18 17 17 17 17 17 18 18 18 17 16 17 17 18 17 17 17 13 10 14 15 14 14 15 16 17 16 16 16 17 17 14 15 19 16 12 14 16 15 12 11 11 12 16 18 16 14 13 12 14 12 11 15 17 14 9 7 7 9 7 4 5 2 9 14 12 9 6 8 7 4 6 8 9
24 24 23 23 23 22 22 21 20 20 19 19 18 18 17 17 17 16 17 17 18 18 17 17 16 16 16 17 17 17 18 13 10 11 11 12 14 13 14 15 16 16 16 17 17 14 15 18 19 13 13 16 16 15 13 12 13 16 19 16 14 13 13 14 10 10 13 15 16 12 9 8 12 10 5 5 3 12 17 12 9 4 6 10 8 6 6 9
24 24 23 23 23 23 22 21 20 19 19 18 18 17 17 17 17 17 17 17 17 17 17 16 15 16 16 17 18 18 18 14 15 14 9 10 12 12 13 14 15 16 16 16 16 15 16 18 20 15 14 15 14 12 11 11 15 16 18 17 17 18 15 12 12 12 11 14 18 16 11 8 10 9 7 8 7 11 15 12 10 5 5 10 9 6 8 11
24 23 23 23 23 23 22 21 20 19 18 18 18 17 17 17 17 17 17 17 17 17 16 16 15 16 16 17 17 17 16 15 17 17 13 10 10 10 11 13 14 15 16 17 17 16 17 19 19 16 15 15 11 11 11 12 18 18 16 16 16 17 14 11 12 13 14 16 15 13 10 7 7 7 8 13 14 12 19 18 14 6 8 12 8 7 11 13
23 22 22 23 23 23 22 21 19 18 18 18 18 17 17 17 17 17 17 17 17 16 17 16 15 16 16 17 16 15 15 15 17 17 16 14 11 9 9 11 14 15 16 18 17 16 17 18 18 16 16 15 14 18 17 13 16 16 13 14 14 14 15 15 14 14 15 15 12 11 10 8 8 9 10 10 14 19 21 19 14 10 15 14 9 9 12 14
21 21 22 22 22 22 22 20 18 17 17 17 17 17 17 17 17 17 16 16 16 16 16 15 15 16 15 16 15 14 12 12 15 15 15 15 13 11 9 9 12 15 17 18 18 16 15 16 15 12 12 14 15 15 15 12 14 15 12 13 14 14 17 18 18 16 13 13 12 12 12 12 11 13 15 9 11 21 22 21 21 18 17 12 8 11 12 14
20 20 20 21 21 21 21 19 17 16 16 16 17 17 17 17 17 16 16 16 15 16 15 15 15 15 16 16 13 11 11 11 13 11 11 13 14 14 12 10 12 15 17 18 19 19 18 15 11 14 14 12 13 12 12 12 14 15 13 13 14 15 19 20 21 19 16 17 15 12 12 14 13 14 16 12 12 21 22 23 23 18 15 11 8 11 13 15
18 18 19 20 20 20 19 18 16 15 15 16 16 17 16 16 16 15 15 15 15 15 14 14 14 15 16 14 11 12 14 13 14 9 8 10 12 13 13 12 13 15 16 18 19 21 22 18 17 22 21 16 15 14 11 10 12 13 13 15 13 15 20 20 19 17 17 18 13 11 14 17 16 13 11 9 14 22 23 23 22 17 14 10 8 10 14 15
17 18 18 19 19 19 18 17 15 15 15 16 16 16 15 15 15 15 15 15 15 15 14 14 14 14 14 11 11 14 14 14 16 12 8 9 11 12 13 14 15 15 16 19 18 16 20 23 21 25 26 19 18 18 11 8 10 11 12 14 15 18 17 13 15 17 17 15 10 11 17 19 16 13 10 10 14 21 24 23 22 18 13 10 8 9 14 16
16 17 17 18 18 18 17 16 15 15 15 16 16 15 15 15 15 14 15 15 15 14 14 14 13 14 13 10 11 13 11 13 14 12 10 9 10 12 13 15 16 18 19 21 19 14 19 24 23 26 27 19 17 17 10 7 9 10 12 14 17 21 13 5 12 19 18 16 14 14 15 16 12 10 13 14 17 22 25 23 19 16 13 11 9 9 14 16
16 16 16 17 17 17 17 16 15 15 15 16 15 14 14 15 14 14 14 14 14 14 13 14 13 13 12 10 12 12 9 10 10 10 10 10 10 11 13 15 17 19 19 20 20 19 20 24 23 25 26 21 17 14 9 9 10 11 14 15 17 21 19 15 14 19 17 15 19 17 12 15 10 8 13 14 24 26 24 20 18 17 14 13 12 10 13 17
15 15 15 16 17 17 16 15 15 15 15 16 15 14 14 14 14 14 14 14 14 14 14 14 12 12 12 12 12 9 7 8 10 10 11 11 11 12 13 15 18 19 18 18 21 20 20 23 23 22 25 24 17 11 12 13 14 16 17 17 15 16 20 20 12 20 18 14 20 17 9 11 7 7 9 8 24 23 19 18 20 19 15 15 15 12 11 16
15 15 15 16 16 16 16 15 15 15 15 15 14 13 13 13 14 14 14 15 15 15 14 14 13 9 7 8 9 7 6 9 10 10 10 11 12 14 15 16 17 18 18 19 21 19 18 20 22 19 21 24 20 15 18 17 17 19 19 18 13 12 16 14 12 23 20 16 17 14 9 7 5 4 3 8 17 14 15 19 20 17 15 14 13 13 15 17
15 15 15 15 15 15 15 15 14 14 15 14 13 12 12 13 13 14 15 16 16 15 13 13 14 10 4 3 1 5 7 9 9 10 11 10 13 15 16 16 17 18 18 18 20 19 18 17 20 21 21 25 23 20 20 18 17 16 18 17 12 13 15 14 17 22 19 21 19 11 9 9 8 7 5 6 11 14 17 20 20 18 17 14 12 15 18 16
15 15 15 15 15 14 14 15 14 14 14 13 12 11 12 14 14 14 15 17 16 15 14 13 15 15 8 3 3 4 7 8 8 9 11 12 13 15 15 14 15 18 18 18 18 17 18 18 21 24 24 24 22 21 20 19 18 18 18 17 18 17 16 13 17 20 18 20 17 9 7 8 10 13 11 8 11 17 21 21 22 21 18 14 13 15 14 13
15 15 15 14 14 14 14 14 14 13 13 13 12 12 14 15 15 15 16 18 17 17 17 17 17 16 13 7 6 6 11 10 9 8 11 13 15 18 19 16 14 18 18 16 13 13 17 20 22 23 23 22 20 18 19 19 20 21 20 20 21 18 18 11 15 19 17 16 13 12 11 10 12 13 15 14 13 17 23 23 21 21 18 14 14 13 11 13
14 14 14 14 14 13 13 13 13 13 13 12 12 13 16 17 16 16 18 19 17 18 18 19 21 18 14 12 12 11 15 12 10 11 11 15 19 20 22 20 17 17 16 15 14 13 17 21 21 20 19 18 17 16 18 19 18 18 18 19 20 17 14 5 13 17 15 13 13 14 9 8 10 11 14 18 17 16 20 22 21 21 20 16 15 14 13 15
14 14 14 13 13 13 12 13 12 13 13 13 13 14 16 17 16 16 18 19 16 17 19 20 22 21 17 15 11 12 16 11 12 15 13 16 19 19 22 21 19 18 16 17 20 20 20 18 16 18 17 15 16 17 18 19 19 17 16 19 19 17 14 7 3 8 9 8 13 14 7 8 11 11 14 18 17 17 19 20 20 20 19 16 14 14 14 16
14 14 13 13 13 12 13 13 13 13 13 13 14 14 16 16 14 14 15 18 19 17 18 20 20 21 21 17 12 14 17 12 13 17 16 15 15 17 21 18 17 19 17 16 20 23 22 16 11 14 17 16 16 18 19 21 21 17 15 18 18 16 15 11 6 4 5 5 8 11 10 11 12 12 14 17 18 18 19 20 21 20 18 17 16 14 14 15
13 13 13 13 12 12 13 13 12 11 11 12 13 14 15 14 11 12 12 15 19 16 14 18 20 21 20 20 18 17 18 16 15 17 20 15 10 15 22 17 16 20 18 17 18 20 22 18 13 12 17 20 19 20 21 20 20 17 12 12 17 17 14 13 13 14 12 8 8 10 8 8 11 10 8 11 16 16 16 19 22 23 21 17 15 16 17 16
13 13 13 12 12 12 12 12 11 11 11 12 13 14 13 11 9 9 9 10 16 15 11 14 17 17 16 21 24 18 17 20 18 17 21 19 13 13 20 20 18 19 18 17 18 20 20 19 18 17 17 20 22 22 22 20 20 19 14 8 10 15 15 15 16 16 13 9 9 10 7 6 10 9 9 11 14 15 16 19 19 19 22 18 15 18 17 16
13 13 13 13 12 12 12 12 12 13 14 14 15 15 12 9 7 5 6 6 10 10 11 12 13 14 15 18 23 23 17 16 18 20 19 20 17 15 19 21 18 18 18 17 19 21 20 19 20 22 22 22 25 24 21 21 21 19 18 15 10 11 12 13 16 18 20 19 15 13 11 11 13 13 13 13 15 16 16 21 22 19 22 24 20 21 19 15
12 13 13 13 12 12 12 12 13 14 15 14 12 11 10 9 6 5 3 2 1 6 11 13 13 12 14 17 21 25 16 4 12 23 23 21 19 18 22 22 18 17 17 18 20 20 18 18 18 21 22 20 21 23 19 15 16 14 14 17 17 14 13 13 16 18 20 19 13 11 11 11 12 16 15 13 15 14 11 13 21 24 22 21 19 20 19 14
12 13 13 12 12 12 12 12 13 14 15 12 7 6 9 9 9 8 2 1 7 11 9 13 16 13 14 18 22 25 18 6 7 18 25 23 20 20 22 22 20 18 16 18 20 20 19 15 14 19 21 18 15 15 16 12 12 14 13 15 18 17 17 15 12 11 12 10 6 8 12 9 10 17 17 14 14 14 9 8 4 13 17 15 15 16 15 13
12 13 13 12 12 11 11 13 14 15 14 12 7 8 11 11 12 9 1 3 10 11 10 14 16 16 19 21 23 25 22 14 7 12 24 26 21 20 21 20 21 21 18 17 20 23 22 14 13 18 18 18 17 13 14 15 14 15 15 16 16 16 19 17 12 9 9 5 4 7 12 10 8 11 11 7 9 12 13 8 4 6 13 13 12 12 11 12
12 13 12 12 11 11 12 14 15 15 12 11 11 12 12 13 12 6 2 6 9 8 11 15 14 17 20 21 22 22 22 18 11 12 24 29 22 21 23 20 21 21 19 20 20 22 23 17 16 21 16 16 20 17 15 16 17 18 15 15 15 13 15 14 12 10 6 4 8 11 13 13 10 4 2 3 6 9 12 12 8 5 8 10 12 11 10 11
12 13 11 11 11 10 13 14 14 13 10 10 12 12 14 12 9 9 5 5 8 8 10 14 15 17 19 20 18 18 20 20 15 13 22 29 25 23 25 23 21 20 19 20 19 20 24 21 16 18 16 16 19 18 17 17 19 21 21 18 10 4 6 5 5 5 5 8 13 14 14 14 9 6 7 6 8 10 12 13 13 11 11 12 12 11 11 11
13 12 11 11 11 11 14 14 12 11 10 11 13 15 16 8 7 16 12 4 6 8 9 13 16 16 18 20 18 16 18 19 16 15 21 27 25 22 24 24 21 20 18 17 18 21 23 22 19 17 15 17 20 18 18 20 19 18 21 19 10 3 3 2 3 3 6 12 17 18 14 7 6 9 7 5 7 9 12 14 15 15 15 14 12 14 16 16
13 12 12 12 11 12 14 12 12 13 14 15 16 18 15 6 7 17 16 5 1 5 8 16 18 15 18 20 19 20 19 18 18 17 19 24 25 22 22 23 22 20 19 16 17 18 17 16 22 22 17 19 22 20 18 17 17 18 19 18 15 11 6 3 4 4 3 6 8 11 9 3 6 8 7 6 6 8 11 13 14 16 18 18 17 17 18 20
13 13 13 12 11 13 13 13 14 16 17 18 20 20 16 13 11 13 13 8 8 10 10 16 18 16 20 20 20 23 21 17 20 21 20 23 25 24 22 23 22 22 22 19 16 16 15 16 22 23 19 20 23 23 21 18 16 18 22 21 18 18 16 11 11 9 2 2 1 1 2 4 7 7 6 6 7 8 11 12 14 16 17 19 19 17 19 20
13 13 12 11 12 13 14 16 16 17 18 19 21 23 22 20 14 8 6 10 9 5 6 14 16 12 15 16 17 20 18 17 21 24 23 22 23 23 22 22 22 24 25 22 18 14 13 14 18 21 20 20 21 19 19 21 19 17 23 28 22 18 19 16 15 16 8 1 1 3 5 8 8 7 5 6 8 9 11 12 14 15 17 18 17 17 18 19
11 11 11 11 13 15 15 18 19 18 19 20 23 25 24 20 13 4 8 13 8 4 3 11 13 8 9 12 15 16 16 17 19 22 22 21 22 22 23 22 22 25 27 25 22 16 13 13 12 18 19 18 20 15 11 19 23 19 19 24 22 17 18 17 9 7 4 2 2 8 10 10 6 5 5 6 9 8 9 9 10 12 13 13 12 12 14 15
10 10 10 10 14 16 17 19 20 20 20 22 25 25 22 19 12 1 7 10 10 4 3 6 7 7 10 12 15 16 18 18 18 20 20 18 18 20 22 23 21 22 24 26 24 18 15 13 9 15 18 15 19 18 13 16 22 23 20 17 15 12 14 18 11 1 2 2 1 6 11 8 5 8 6 3 7 6 7 7 7 8 8 8 7 8 10 11
10 12 11 11 14 17 18 19 19 20 21 24 26 23 20 16 7 2 5 6 8 3 2 2 2 6 8 10 12 13 19 22 18 18 18 13 14 16 17 21 21 20 22 24 26 21 16 12 6 12 18 14 17 22 21 19 18 20 22 21 17 11 9 13 13 8 4 2 1 3 6 5 6 9 8 6 8 5 5 7 6 7 7 7 6 7 8 9
13 13 12 12 13 16 18 19 20 21 23 25 25 21 17 9 3 4 8 8 8 4 4 5 5 7 6 8 7 2 12 19 18 17 16 8 8 12 12 11 12 15 21 24 26 24 19 14 9 10 17 16 16 21 22 20 18 18 21 22 19 14 10 7 9 11 6 2 3 3 2 3 8 7 6 8 7 5 5 7 8 9 9 7 7 7 6 4
16 15 14 14 13 14 18 20 21 23 23 23 23 19 12 6 7 5 7 10 11 11 10 8 4 6 7 8 6 3 3 11 14 13 14 7 4 6 7 6 4 5 15 23 27 27 22 18 14 13 17 16 12 15 20 19 18 18 19 21 20 16 13 7 5 9 9 3 2 4 2 5 9 8 6 6 7 7 8 9 9 11 11 8 8 7 3 1
17 15 15 14 12 13 17 20 20 21 21 20 19 15 6 5 7 3 3 7 6 10 9 8 6 5 7 9 6 5 4 5 6 4 13 14 8 3 4 9 8 4 7 13 17 23 22 20 19 17 20 19 12 9 17 17 17 18 17 19 22 21 18 10 5 6 10 5 2 5 3 4 9 9 5 4 7 8 10 11 12 13 12 10 9 7 2 0
15 12 14 14 12 14 16 17 18 19 20 17 15 9 4 8 10 8 5 5 4 5 6 5 7 5 5 6 4 5 5 2 0 3 6 11 8 6 8 13 12 8 9 8 7 14 16 14 17 16 17 20 16 11 13 14 17 16 13 13 18 23 25 21 17 13 12 10 6 5 3 5 10 9 7 7 7 9 11 12 13 14 13 12 12 10 6 4
12 10 14 15 15 16 17 18 17 16 16 12 8 7 6 8 7 4 5 4 3 5 5 4 5 5 4 4 2 2 4 1 1 2 2 4 4 7 12 14 13 9 11 8 2 7 9 5 10 11 7 9 13 12 9 9 11 5 6 6 4 11 20 20 18 14 10 11 13 8 4 7 11 9 7 8 8 9 11 12 14 15 13 13 14 13 11 8
11 12 15 14 16 18 18 19 16 13 14 10 9 10 7 6 7 5 6 5 3 5 6 5 4 4 3 3 3 3 1 3 3 3 3 2 3 7 10 11 13 11 11 10 6 6 5 1 4 6 4 2 3 3 5 6 2 4 9 8 9 4 7 9 6 6 4 4 9 8 8 12 13 10 8 8 10 12 13 14 15 15 15 15 15 13 12 10
11 15 16 14 16 18 16 17 15 13 13 8 8 11 9 6 6 6 8 8 5 3 5 6 6 5 4 3 2 2 1 3 4 3 1 3 4 6 8 9 10 12 13 13 12 10 7 3 3 3 5 4 3 3 3 6 7 9 10 10 13 11 3 2 4 5 5 6 8 7 10 16 15 11 10 10 11 13 15 16 16 16 17 17 14 9 9 8
12 15 17 16 17 17 16 16 14 12 9 5 5 9 10 8 6 6 9 9 5 4 6 6 6 4 3 3 3 4 4 3 3 3 2 5 6 6 6 6 8 10 13 15 15 13 9 5 5 4 5 4 2 2 1 2 5 8 10 13 14 12 9 4 3 5 5 5 6 6 11 16 14 10 11 11 9 8 10 16 17 16 15 12 7 5 5 5
11 13 18 17 14 14 15 15 15 12 8 5 5 6 9 9 7 7 9 8 5 4 5 6 7 5 2 4 4 4 6 7 5 3 3 4 5 5 5 5 7 7 10 15 17 15 10 5 4 8 7 4 3 2 3 4 1 3 7 12 12 9 8 5 6 8 5 4 6 10 12 12 11 10 12 12 10 7 7 12 13 11 9 6 4 5 5 4
9 13 20 16 11 11 11 11 12 10 6 5 5 5 7 9 8 7 7 7 6 4 3 4 7 6 3 4 5 4 6 7 4 1 2 3 3 3 2 2 5 6 9 13 15 15 13 7 3 6 6 4 5 5 6 7 6 6 8 7 9 6 4 5 7 8 8 8 9 11 13 14 13 11 12 13 12 8 7 8 9 7 7 4 3 4 4 4
9 15 19 15 11 11 9 7 8 7 5 6 5 4 7 9 9 8 6 4 5 5 5 5 6 5 4 2 4 5 7 9 6 2 2 1 1 2 2 2 3 4 5 9 11 12 14 9 3 5 5 2 5 7 6 6 7 7 9 8 2 4 5 8 11 11 10 11 12 11 14 18 18 15 14 13 12 9 8 8 7 6 6 3 2 3 4 4
12 16 16 11 9 9 7 6 8 7 5 6 6 6 7 8 8 8 7 5 3 3 6 7 5 7 6 2 5 3 5 8 8 6 3 3 2 1 1 2 2 1 0 4 6 7 9 8 5 5 3 1 2 3 2 5 7 6 5 6 4 2 4 8 12 13 11 14 15 15 16 19 18 18 17 15 14 11 8 8 8 6 6 5 3 4 4 4
12 15 12 9 9 10 8 5 6 7 6 7 6 5 8 9 5 5 7 8 4 1 4 8 8 9 9 5 2 5 6 8 10 11 11 8 7 2 4 2 2 2 3 1 3 5 6 6 5 4 2 3 4 3 2 4 4 2 2 3 3 6 7 8 10 12 13 16 18 17 18 18 18 17 17 16 14 11 8 9 9 7 6 5 3 6 7 7
Wind_Direction
265 264 263 263 262 261 260 260 259 259 259 258 258 257 257 256 255 254 253 251 251 250 250 249 249 249 249 250 250 250 250 250 251 246 240 239 235 229 224 222 220 215 213 213 213 210 204 198 196 197 200 202 199 198 186 168 175 208 227 238 235 219 199 158 333 344 107 101 58 145 151 132 61 38 53 80 41 302 271 260 252 251 265 269 273 272 280 283
265 264 263 262 261 260 260 259 258 257 257 257 256 256 255 255 254 253 252 250 250 249 249 248 248 248 248 249 249 250 250 250 250 242 239 243 232 225 223 221 220 215 212 209 209 209 201 195 195 196 198 200 190 186 190 174 179 203 216 237 236 210 180 32 328 316 265 164 85 65 136 145 346 337 32 108 45 307 274 253 244 242 255 260 265 270 279 283
265 264 263 261 260 259 259 258 257 256 256 256 255 254 254 253 252 251 250 248 248 247 247 247 246 247 247 248 248 248 249 250 248 238 238 242 230 226 224 221 221 217 211 205 206 202 194 191 190 193 193 194 184 179 184 181 197 206 215 229 221 203 223 323 315 276 284 269 141 106 95 102 40 313 98 127 127 325 300 270 254 252 262 268 269 272 277 274
264 264 263 262 260 258 258 257 256 255 255 255 253 253 252 251 250 248 247 246 246 245 245 245 244 245 245 246 247 247 249 250 248 237 237 238 231 229 224 222 222 217 211 205 205 200 194 187 181 186 184 182 171 169 191 197 213 220 226 220 203 219 258 308 309 261 270 272 210 158 109 77 7 309 248 152 162 314 308 288 268 270 283 298 283 264 263 256
263 263 263 262 261 259 257 256 255 254 254 253 252 252 250 249 247 246 245 243 244 243 242 242 242 242 243 245 245 245 246 251 248 233 231 232 229 228 222 222 220 216 212 205 205 203 200 184 170 177 176 171 164 171 204 213 221 232 240 233 228 250 260 279 299 281 268 271 266 244 253 291 297 290 223 180 226 301 304 295 275 277 290 313 300 258 250 238
261 261 261 261 261 259 257 255 254 253 253 252 251 251 249 248 245 244 243 242 241 241 240 240 239 239 241 243 241 241 239 239 238 228 225 221 218 220 217 218 216 214 212 204 203 207 209 187 167 177 177 167 172 187 204 210 221 234 241 246 258 267 272 279 285 291 279 274 277 271 267 257 257 260 183 181 273 298 293 290 277 272 283 292 315 275 242 227
260 260 259 259 260 259 257 255 253 253 253 252 251 249 248 246 244 243 241 240 240 239 239 236 236 237 238 241 239 238 235 228 227 227 222 214 211 210 210 212 212 212 209 203 200 203 213 190 167 176 186 173 178 192 200 210 223 238 244 245 255 257 272 282 264 271 279 274 278 281 272 247 246 247 221 205 244 285 279 275 273 272 283 276 284 284 235 220
260 259 258 258 258 257 256 255 253 252 252 252 250 248 246 245 243 242 240 239 239 238 237 234 233 235 235 239 238 236 235 224 226 229 216 208 208 205 207 206 206 209 202 199 198 199 209 193 169 173 192 180 173 179 188 217 229 239 252 255 253 248 261 271 244 256 283 282 283 285 280 266 254 245 235 203 194 275 269 259 273 278 296 290 281 260 231 220
260 259 258 256 256 255 255 254 253 252 252 251 249 247 245 243 242 241 240 239 239 238 237 234 232 233 233 236 237 237 234 219 220 226 217 209 202 196 202 199 199 201 195 194 196 198 201 190 169 172 194 186 185 210 219 235 236 238 256 265 261 254 261 267 252 262 278 281 288 290 284 286 281 261 239 199 186 242 262 263 269 262 289 299 286 244 226 219
259 258 257 256 255 254 253 253 252 250 250 251 250 248 245 242 241 240 240 239 239 238 236 234 232 233 232 234 236 234 234 227 223 224 219 216 208 191 187 192 196 192 192 192 192 199 200 186 168 174 203 213 227 241 240 239 235 240 255 256 258 264 260 259 259 265 275 278 274 272 269 270 272 259 250 212 200 238 255 260 263 271 287 291 273 236 217 213
258 258 256 255 254 253 253 252 253 250 250 251 251 249 245 242 240 239 239 238 238 238 236 234 233 234 232 232 232 228 233 238 230 222 220 221 212 200 185 186 193 187 192 192 188 195 190 168 158 176 213 232 237 239 240 235 225 227 237 241 248 257 252 248 248 248 261 269 259 258 263 263 256 240 239 216 215 246 251 252 258 271 285 287 253 223 210 205
256 256 255 254 254 253 253 253 253 251 249 251 251 249 245 240 239 239 239 239 238 237 236 234 234 234 234 232 228 221 219 231 238 220 211 221 212 206 199 184 187 187 190 193 190 184 167 153 178 213 226 237 227 223 239 238 228 225 227 240 249 252 248 245 245 240 241 252 259 263 264 262 251 243 240 203 209 247 246 243 250 258 271 281 252 223 211 203
253 253 253 252 253 253 253 253 254 251 249 249 248 245 242 239 238 239 239 239 238 237 236 235 235 234 236 233 222 217 210 221 242 221 191 217 213 207 203 185 184 184 186 194 192 183 172 178 212 217 214 216 204 205 226 226 231 235 233 247 258 258 253 245 243 241 237 246 258 253 251 254 247 258 260 198 213 243 238 238 246 251 265 277 267 237 218 206
252 252 252 252 252 252 252 253 253 251 247 246 245 242 240 240 240 240 239 239 236 236 237 237 236 236 236 229 218 222 220 222 234 224 202 214 213 206 198 187 182 177 186 194 188 189 189 192 207 206 201 201 191 196 211 213 226 232 232 245 250 254 257 242 236 240 238 237 242 235 243 258 257 256 254 211 216 233 233 242 249 254 266 269 271 252 222 212
252 251 252 253 252 252 252 251 251 248 245 243 241 239 240 241 241 239 237 237 236 235 237 237 238 240 235 223 223 227 228 228 229 226 219 211 205 201 193 187 184 177 185 193 185 195 202 196 204 201 194 195 190 195 210 215 216 221 231 237 238 247 255 243 229 229 231 228 220 220 242 275 280 259 258 238 225 227 228 237 246 254 260 254 266 260 226 221
250 250 252 253 253 252 251 249 247 244 242 240 240 239 241 242 241 238 235 233 233 232 234 236 236 240 236 224 226 229 229 229 225 219 217 212 200 192 188 184 187 185 187 194 192 197 201 198 206 202 195 199 197 197 215 226 219 216 229 234 234 244 256 278 260 225 223 215 203 211 252 289 294 313 309 254 223 222 223 232 249 256 256 253 263 262 231 227
248 248 249 251 251 251 249 246 243 240 239 239 239 239 240 241 239 236 234 230 230 229 230 233 232 240 245 236 233 236 232 221 220 216 208 208 196 179 183 185 187 192 192 195 197 201 203 201 209 208 203 205 198 200 227 237 231 219 224 233 238 245 258 277 252 202 204 197 197 214 266 304 307 345 348 212 202 209 220 239 252 251 255 260 261 265 257 245
247 246 245 247 248 248 246 242 239 237 237 238 237 238 239 239 237 235 234 230 226 224 227 231 230 232 241 240 242 246 225 210 215 214 202 201 192 178 184 191 190 194 196 198 198 202 206 204 211 212 207 207 198 201 224 226 218 217 220 226 238 250 261 267 210 190 194 189 196 219 247 286 313 342 21 177 194 216 238 243 244 249 262 263 256 267 283 276
247 244 243 243 242 244 243 239 236 233 234 235 233 234 234 235 236 236 236 233 227 223 227 231 225 210 155 91 340 259 223 210 215 212 204 195 189 185 186 194 196 196 199 200 199 201 204 203 207 210 207 207 202 199 214 219 216 227 229 231 256 266 270 270 223 204 194 187 191 209 233 248 268 278 267 221 223 237 243 238 243 259 265 255 254 273 284 281
248 244 240 237 237 238 236 234 232 230 230 229 227 226 228 229 228 231 235 234 230 225 226 234 230 216 206 115 49 269 219 208 227 217 205 195 186 183 189 201 198 197 201 200 200 200 202 206 207 211 208 206 208 203 210 221 230 247 252 264 286 280 283 277 216 197 189 193 196 195 211 226 235 246 242 241 247 236 232 238 247 254 255 255 261 270 274 268
247 244 237 232 231 230 230 229 226 225 224 222 221 218 222 226 224 230 235 231 226 225 224 232 236 228 221 186 136 210 215 217 241 222 199 190 180 176 188 205 199 197 199 189 193 195 200 212 213 213 212 210 211 208 215 225 235 251 262 280 288 279 292 281 194 180 181 190 197 195 206 224 233 240 234 239 256 237 226 236 248 248 247 252 258 259 262 266
246 241 234 229 225 222 222 220 219 220 217 216 215 214 223 228 229 236 243 238 228 227 226 226 234 234 216 171 145 198 224 230 230 214 198 184 180 178 187 203 202 202 197 179 192 207 208 218 219 214 212 212 211 210 226 236 242 254 261 278 280 270 292 278 175 182 193 204 213 206 213 244 253 254 237 240 259 258 238 240 255 256 244 240 250 253 257 271
244 237 231 225 220 215 214 213 214 215 213 213 212 216 227 233 237 243 250 253 243 233 232 229 233 240 219 174 151 205 222 221 206 205 205 191 186 181 187 201 201 203 208 193 199 211 216 224 222 213 204 207 216 217 230 241 246 256 260 269 270 263 280 298 182 190 199 213 213 210 228 254 258 262 248 243 256 269 262 258 260 251 245 251 257 251 253 270
240 232 227 221 215 211 208 208 210 212 213 212 211 216 227 233 242 249 255 265 262 248 243 239 237 242 229 193 176 204 207 201 199 209 215 199 187 180 186 204 203 200 213 206 199 208 223 237 232 215 202 202 220 226 234 243 245 249 253 253 251 257 271 283 296 268 236 238 228 235 250 254 264 273 262 246 241 254 262 264 256 242 252 267 260 256 265 271
235 229 223 217 212 207 207 207 208 213 213 213 216 217 225 233 240 251 264 274 274 265 248 242 235 236 231 204 197 211 212 202 190 207 227 222 204 187 184 201 210 202 210 212 206 211 223 237 241 227 207 199 211 223 229 239 246 244 244 247 241 244 264 271 278 295 293 283 285 279 257 257 280 283 277 255 239 240 242 248 254 255 261 263 260 273 278 265
231 225 221 215 209 206 205 203 200 203 202 206 214 214 224 235 232 250 271 279 283 272 237 232 232 229 224 201 195 203 220 222 196 196 231 237 236 211 187 195 213 211 211 213 218 222 223 227 232 233 222 209 210 217 221 228 239 240 235 254 254 242 256 264 265 284 289 280 290 285 262 279 294 286 284 279 259 248 241 240 250 262 258 248 258 277 278 259
226 223 221 214 208 204 200 199 197 199 201 204 209 210 212 216 214 234 258 278 289 264 218 211 216 218 217 199 189 190 206 234 213 196 219 231 226 217 196 196 213 215 209 212 220 227 230 228 226 231 233 225 218 219 221 221 227 235 234 237 248 246 246 242 243 257 263 266 275 277 277 287 289 286 285 286 272 263 264 253 243 247 245 239 247 260 272 268
223 224 222 214 208 204 198 198 198 201 208 214 220 217 197 189 195 182 202 279 214 190 199 199 193 198 207 197 192 195 192 228 221 196 200 220 216 207 204 202 211 216 208 214 224 225 229 235 231 230 232 225 218 218 218 213 216 232 244 235 230 238 245 245 250 255 257 259 263 271 284 290 287 286 284 282 274 272 294 275 246 241 234 227 236 250 263 258
226 225 223 217 210 204 198 197 202 206 210 215 229 214 184 176 175 165 169 274 162 169 190 195 190 180 182 189 195 205 198 171 224 197 189 209 213 203 208 203 202 215 215 220 234 228 225 237 229 225 234 229 214 215 215 214 223 233 244 238 233 243 254 259 261 266 272 265 252 260 265 268 283 289 286 272 259 260 292 340 274 224 211 207 225 241 245 230
231 227 227 221 212 203 194 194 205 211 206 207 195 172 175 172 170 167 168 198 175 178 187 189 194 180 170 181 194 211 208 185 208 209 189 200 210 204 209 206 204 220 229 228 234 228 226 239 225 219 237 232 215 217 224 225 228 233 238 239 244 252 253 256 257 270 297 288 260 269 254 250 265 281 291 266 236 248 264 304 349 186 195 207 217 221 223 221
237 232 230 223 216 204 193 195 208 212 204 202 188 171 174 172 171 171 155 187 179 174 183 182 187 185 178 186 198 211 210 192 199 212 190 192 205 206 205 209 213 225 240 237 232 232 234 242 228 220 230 228 217 222 233 230 222 224 229 233 242 240 234 252 266 262 275 265 270 274 256 257 260 230 104 133 208 241 249 260 269 219 197 196 184 187 212 236
241 236 233 226 218 203 198 202 209 214 206 199 192 178 173 170 185 203 195 188 182 182 197 187 183 190 187 190 203 206 198 190 196 205 191 189 200 207 205 205 210 219 235 237 232 235 239 241 229 218 223 222 216 214 216 225 227 224 220 220 231 217 192 237 274 246 236 249 261 264 254 259 250 166 123 152 203 228 237 238 237 233 228 214 193 196 222 256
243 239 234 227 215 202 207 205 201 206 200 197 197 180 172 168 210 208 194 146 157 190 211 195 186 191 188 190 203 202 190 186 189 196 194 190 195 210 211 206 207 215 224 232 233 226 228 238 234 225 223 214 209 206 205 218 227 217 209 210 210 158 139 216 233 225 239 244 244 243 243 239 184 151 132 169 197 210 222 224 222 222 226 226 220 219 235 260
241 238 231 225 213 206 210 199 191 197 189 192 196 181 174 183 209 209 207 195 220 253 223 192 182 183 190 196 199 197 195 192 189 192 195 192 193 206 215 209 206 214 219 227 235 221 211 226 228 224 225 214 210 212 207 213 219 207 203 213 216 209 207 214 207 196 203 229 230 224 224 185 160 162 150 177 204 211 218 221 221 223 225 229 232 235 250 265
239 236 229 224 211 207 206 191 189 196 189 189 190 180 185 199 195 203 221 252 287 278 229 186 173 180 194 202 204 199 199 196 188 190 196 194 193 197 208 213 206 208 217 223 230 228 224 224 219 219 224 222 220 217 209 213 225 215 205 211 220 218 218 228 246 251 237 74 64 160 122 118 148 161 162 196 222 227 235 238 235 238 241 243 247 255 266 269
235 231 226 219 206 203 199 189 188 193 190 186 186 187 197 202 188 177 240 287 297 288 219 178 170 183 194 204 217 207 200 198 188 187 192 194 201 203 207 217 214 208 213 221 225 227 235 236 224 219 222 225 225 218 209 214 223 216 204 206 214 219 219 229 250 257 260 61 191 205 127 126 142 145 156 219 235 232 244 253 253 254 258 260 261 265 267 268
228 224 217 209 202 197 192 190 189 187 186 187 190 197 203 201 186 181 289 283 277 336 284 186 180 207 206 208 226 215 208 206 189 185 190 193 205 212 210 215 220 214 208 215 227 227 234 250 233 213 211 211 214 216 217 219 222 226 219 211 210 213 224 235 249 255 237 117 200 204 169 152 153 141 149 233 249 252 258 262 267 266 266 268 266 262 263 264
214 203 192 195 199 192 187 191 190 184 185 192 197 203 206 199 185 213 306 260 232 282 309 181 180 218 213 217 228 217 211 204 183 185 196 198 205 211 211 214 220 219 209 211 224 228 235 252 240 212 213 207 205 212 225 228 230 239 242 232 219 207 215 226 231 248 140 155 254 188 162 145 131 131 132 236 252 267 283 280 280 273 267 265 257 251 252 252
191 175 168 179 193 187 184 188 187 184 187 195 202 204 200 192 176 353 316 237 208 241 308 210 271 265 243 253 249 214 199 194 181 188 199 204 207 199 201 212 217 218 214 213 221 225 230 244 244 214 218 223 212 208 212 217 227 240 243 247 251 240 225 224 222 212 176 164 221 151 129 121 135 144 153 201 221 234 273 281 279 262 251 249 244 247 251 251
172 166 164 170 182 182 181 183 184 188 192 197 203 197 186 196 265 281 263 247 213 223 275 260 298 307 294 301 301 221 189 186 177 189 201 207 210 188 180 203 212 211 212 214 220 225 224 227 238 216 215 232 227 207 207 213 222 237 241 248 254 242 232 241 236 226 212 152 169 149 80 164 172 176 195 215 234 254 262 267 265 249 241 242 245 250 254 261
167 163 160 165 174 175 178 183 185 191 197 199 199 188 181 241 285 254 264 274 238 226 247 250 278 319 330 355 9 36 175 180 170 186 206 213 217 186 182 215 233 216 212 209 214 223 223 216 224 223 219 237 244 213 212 219 225 231 236 243 248 243 235 233 235 233 232 241 150 138 161 194 182 194 218 231 255 269 268 265 252 241 239 239 246 254 270 353
169 160 156 163 171 173 179 186 186 193 200 197 187 177 175 277 282 252 311 324 259 211 220 246 267 302 329 352 23 56 62 172 169 194 215 225 245 234 229 245 250 251 202 189 196 211 214 209 215 224 227 238 257 232 218 222 226 229 235 238 236 240 245 241 227 217 208 211 85 104 146 183 177 186 197 223 254 258 259 257 245 240 244 244 248 253 254 227
175 163 158 161 166 173 182 186 187 195 198 188 182 188 240 271 272 265 266 320 294 197 189 242 260 266 303 346 31 43 30 189 164 38 190 212 238 246 257 256 249 235 205 190 172 185 192 194 201 213 230 239 250 244 223 218 217 226 249 250 232 231 234 238 246 239 209 194 166 119 113 180 182 190 195 210 243 253 250 252 250 250 252 253 258 258 241 230
177 160 156 159 166 176 181 179 184 200 200 191 211 241 254 246 244 253 250 262 257 212 195 202 231 244 269 331 347 342 13 47 276 4 155 185 215 239 256 258 254 242 212 217 222 166 172 169 177 185 212 245 252 255 254 234 208 216 335 334 275 227 217 224 235 226 203 199 194 171 134 171 186 196 200 209 234 247 246 247 253 259 262 261 266 266 250 233
173 156 157 163 172 177 176 170 174 201 208 211 241 248 247 233 208 192 211 207 191 217 217 194 188 212 246 286 270 231 356 2 323 325 322 278 243 252 265 263 258 251 228 232 243 191 175 137 171 165 139 163 224 255 320 320 288 2 355 351 0 352 197 190 178 160 138 171 181 160 138 157 175 188 203 228 243 246 247 245 245 255 263 264 267 267 253 236
170 157 160 166 172 172 170 169 174 194 203 207 231 228 226 224 211 214 213 194 158 168 198 200 200 208 223 226 211 207 262 314 314 320 277 196 205 243 267 273 265 254 240 238 236 220 208 214 211 132 105 120 125 92 19 352 18 22 358 341 350 355 341 174 134 107 83 112 120 115 150 161 165 182 206 227 236 239 240 235 233 243 253 259 263 258 248 240
177 159 159 165 169 171 176 179 177 177 178 187 220 214 211 210 208 222 213 196 172 166 183 199 207 219 239 220 221 238 224 233 310 345 169 187 196 209 234 262 267 262 249 241 238 230 216 214 228 196 122 113 119 109 266 300 30 28 7 356 353 349 351 359 156 131 107 128 117 122 164 162 157 186 214 223 236 249 237 226 229 238 245 248 247 233 234 244
190 164 161 164 166 174 182 177 171 162 148 164 205 201 201 205 208 221 211 191 178 188 200 209 203 198 211 207 219 238 222 233 290 358 131 169 187 195 209 236 251 261 250 236 235 230 210 185 196 197 181 169 185 211 272 268 302 344 349 11 15 353 354 38 144 166 185 211 159 152 174 171 162 198 226 229 241 266 252 225 223 235 247 244 223 217 220 226
193 162 163 164 160 171 175 166 173 180 163 175 212 214 197 193 194 204 199 176 175 191 207 205 189 186 216 220 210 206 199 210 237 278 137 134 141 172 188 201 226 241 237 224 223 222 210 187 170 208 208 219 242 258 280 281 279 277 291 347 37 45 46 90 134 168 198 208 173 166 188 187 179 202 228 232 237 249 252 231 215 225 250 259 252 246 235 223
169 156 164 164 154 163 164 146 166 191 196 191 195 187 181 181 181 180 174 171 190 200 196 183 181 204 238 211 186 210 214 211 223 271 357 44 155 176 158 160 214 241 229 211 209 213 212 206 230 246 235 268 283 275 272 265 254 246 255 270 333 80 102 121 132 146 171 185 180 183 192 188 188 201 217 230 236 235 237 230 219 232 247 242 246 259 261 251
147 146 156 148 130 144 148 134 154 176 195 189 178 175 169 164 171 176 173 174 190 221 204 190 197 224 228 150 103 133 191 208 222 218 158 103 82 3 256 170 141 34 97 185 191 205 212 210 215 235 245 303 272 267 253 229 225 219 230 249 252 161 140 144 142 148 167 178 180 186 190 192 199 209 217 229 236 237 233 218 210 227 244 245 225 206 215 236
141 133 138 123 110 126 138 149 160 169 184 176 167 169 157 148 161 189 181 169 147 76 210 202 212 223 223 217 136 126 158 190 204 199 185 157 125 114 285 267 111 46 347 281 194 188 191 192 193 207 196 141 171 206 229 211 205 205 222 214 159 138 154 160 147 150 167 175 178 184 192 203 213 219 226 234 236 241 238 218 213 213 215 234 223 186 193 206
Height
3084 3084 3084 3084 3085 3085 3086 3086 3087 3087 3088 3088 3089 3090 3091 3091 3091 3092 3092 3093 3093 3094 3094 3094 3095 3095 3096 3097 3097 3098 3098 3099 3100 3101 3103 3105 3105 3106 3108 3109 3110 3111 3112 3114 3115 3116 3117 3118 3119 3121 3122 3123 3124 3125 3126 3126 3128 3131 3131 3131 3129 3129 3130 3132 3135 3135 3133 3133 3132 3132 3133 3133 3134 3135 3136 3137 3138 3136 3136 3137 3138 3137 3137 3138 3139 3140 3141 3141
3081 3082 3082 3082 3082 3083 3083 3084 3085 3085 3086 3086 3087 3088 3088 3089 3090 3090 3090 3091 3091 3092 3092 3092 3092 3093 3094 3094 3094 3095 3096 3097 3098 3100 3102 3103 3103 3105 3106 3107 3108 3109 3111 3112 3114 3115 3116 3117 3118 3120 3121 3122 3123 3124 3125 3126 3127 3128 3129 3129 3127 3128 3130 3132 3136 3134 3132 3132 3132 3132 3132 3133 3133 3134 3135 3137 3138 3136 3135 3136 3137 3136 3136 3137 3138 3139 3140 3140
3079 3080 3080 3080 3080 3081 3081 3082 3082 3083 3084 3084 3085 3086 3086 3087 3088 3088 3089 3089 3089 3089 3089 3090 3090 3091 3091 3091 3092 3093 3094 3094 3095 3098 3100 3100 3101 3103 3104 3106 3107 3108 3109 3111 3112 3113 3114 3116 3117 3119 3120 3121 3122 3123 3124 3126 3126 3127 3127 3126 3125 3128 3130 3131 3135 3133 3130 3131 3131 3131 3131 3133 3133 3133 3134 3136 3137 3135 3134 3135 3136 3136 3136 3136 3138 3139 3139 3139
3077 3077 3078 3078 3078 3079 3079 3080 3080 3081 3081 3082 3083 3084 3084 3085 3086 3087 3087 3087 3087 3087 3087 3088 3088 3089 3089 3089 3090 3091 3091 3092 3093 3096 3098 3098 3100 3101 3102 3104 3105 3107 3108 3109 3111 3112 3113 3114 3115 3117 3119 3120 3121 3122 3123 3125 3126 3126 3125 3124 3124 3128 3129 3131 3133 3131 3129 3129 3130 3131 3131 3132 3133 3132 3135 3135 3136 3135 3134 3134 3135 3135 3136 3136 3137 3138 3138 3138
3074 3075 3075 3076 3076 3077 3077 3077 3078 3079 3080 3080 3081 3082 3083 3084 3084 3085 3085 3085 3085 3085 3085 3086 3086 3087 3087 3087 3088 3089 3090 3090 3091 3094 3095 3096 3098 3099 3101 3102 3103 3105 3106 3108 3109 3111 3111 3112 3113 3116 3117 3119 3120 3121 3122 3124 3126 3125 3124 3124 3126 3128 3128 3130 3131 3129 3128 3128 3129 3131 3131 3132 3132 3132 3134 3135 3136 3135 3134 3133 3133 3134 3135 3136 3136 3136 3137 3138
3072 3072 3073 3073 3074 3074 3075 3075 3076 3077 3078 3079 3079 3080 3081 3082 3083 3083 3083 3083 3083 3083 3083 3084 3084 3085 3085 3085 3086 3087 3087 3088 3090 3091 3093 3094 3096 3097 3099 3100 3102 3103 3105 3106 3108 3109 3111 3111 3112 3115 3116 3117 3119 3119 3121 3124 3125 3125 3123 3125 3126 3127 3127 3128 3130 3128 3127 3127 3128 3130 3130 3132 3132 3132 3134 3135 3136 3135 3133 3132 3131 3132 3134 3135 3136 3136 3136 3137
3069 3070 3070 3071 3071 3072 3073 3073 3074 3075 3076 3077 3078 3078 3079 3080 3081 3081 3081 3081 3081 3081 3082 3082 3083 3083 3083 3083 3084 3084 3085 3087 3089 3090 3091 3092 3094 3095 3097 3098 3100 3101 3103 3105 3107 3108 3110 3110 3110 3113 3116 3117 3118 3118 3120 3123 3125 3124 3123 3124 3125 3126 3127 3127 3129 3127 3125 3125 3127 3128 3129 3130 3130 3131 3133 3134 3137 3134 3131 3131 3130 3131 3133 3134 3136 3136 3136 3136
3066 3067 3068 3068 3069 3070 3070 3071 3071 3073 3074 3075 3076 3076 3077 3078 3079 3079 3079 3079 3079 3080 3080 3080 3081 3081 3081 3081 3082 3082 3083 3086 3087 3088 3090 3091 3092 3093 3095 3097 3098 3100 3102 3104 3106 3107 3108 3109 3110 3112 3115 3116 3117 3118 3121 3123 3124 3124 3122 3123 3123 3124 3125 3126 3126 3125 3125 3125 3125 3127 3127 3128 3129 3130 3132 3133 3136 3133 3128 3129 3129 3131 3133 3134 3135 3135 3136 3136
3064 3064 3065 3066 3066 3067 3068 3069 3069 3070 3072 3073 3074 3074 3075 3076 3077 3077 3077 3077 3078 3078 3078 3079 3079 3079 3079 3079 3080 3081 3082 3084 3085 3086 3088 3090 3090 3092 3093 3095 3097 3099 3101 3102 3104 3105 3107 3108 3109 3111 3114 3115 3116 3117 3120 3121 3122 3123 3122 3122 3122 3122 3123 3124 3125 3125 3125 3125 3125 3126 3126 3127 3128 3129 3130 3131 3134 3131 3126 3127 3128 3130 3133 3134 3134 3134 3135 3135
3061 3062 3062 3063 3064 3065 3065 3066 3067 3068 3069 3071 3072 3073 3073 3074 3075 3075 3075 3076 3076 3076 3077 3077 3077 3077 3077 3077 3078 3079 3080 3082 3084 3085 3087 3088 3089 3091 3092 3094 3095 3097 3099 3101 3103 3104 3106 3107 3109 3111 3113 3114 3115 3115 3117 3119 3120 3121 3121 3121 3121 3121 3122 3123 3124 3124 3124 3124 3125 3125 3126 3127 3127 3128 3128 3130 3132 3129 3126 3127 3128 3130 3133 3134 3134 3134 3134 3135
3058 3059 3060 3061 3061 3062 3063 3064 3065 3066 3067 3069 3070 3070 3071 3072 3073 3073 3073 3074 3074 3074 3075 3075 3075 3075 3076 3076 3077 3079 3079 3080 3082 3084 3086 3087 3089 3090 3091 3093 3094 3096 3098 3100 3101 3104 3106 3107 3109 3112 3113 3113 3114 3114 3115 3116 3117 3119 3120 3120 3120 3120 3120 3120 3121 3122 3123 3123 3124 3124 3125 3125 3126 3126 3126 3128 3130 3127 3127 3127 3127 3130 3132 3133 3133 3133 3134 3134
3056 3056 3057 3058 3059 3060 3061 3062 3063 3064 3065 3066 3067 3068 3069 3070 3071 3071 3071 3072 3072 3073 3073 3074 3074 3074 3074 3075 3076 3078 3079 3079 3080 3083 3085 3086 3087 3089 3090 3092 3094 3095 3097 3099 3101 3103 3104 3105 3108 3110 3111 3111 3112 3113 3114 3114 3115 3116 3117 3118 3118 3119 3118 3118 3119 3120 3122 3122 3122 3124 3124 3123 3123 3123 3124 3127 3128 3126 3126 3126 3126 3130 3132 3132 3133 3133 3134 3133
3053 3054 3055 3056 3056 3057 3058 3059 3061 3062 3063 3064 3065 3066 3067 3068 3069 3070 3070 3070 3071 3071 3071 3072 3072 3072 3073 3074 3076 3077 3077 3078 3079 3081 3083 3084 3086 3087 3089 3091 3092 3094 3096 3098 3100 3102 3102 3102 3104 3106 3107 3108 3109 3111 3111 3112 3114 3115 3116 3116 3116 3117 3115 3115 3117 3118 3120 3120 3121 3123 3122 3120 3121 3122 3123 3125 3127 3125 3124 3124 3125 3129 3131 3131 3132 3132 3133 3133
3051 3052 3052 3053 3054 3055 3056 3057 3058 3060 3061 3062 3063 3064 3065 3066 3067 3068 3068 3069 3069 3069 3070 3070 3071 3071 3072 3073 3074 3075 3076 3077 3078 3080 3082 3083 3085 3086 3088 3090 3091 3093 3095 3097 3098 3100 3101 3101 3102 3103 3104 3106 3107 3109 3109 3111 3112 3113 3115 3115 3115 3115 3111 3111 3115 3116 3117 3118 3120 3122 3120 3117 3119 3121 3122 3124 3125 3124 3122 3122 3123 3127 3130 3131 3131 3132 3132 3133
3049 3049 3050 3051 3052 3052 3053 3055 3056 3058 3059 3060 3061 3062 3064 3065 3065 3066 3067 3067 3067 3068 3068 3069 3069 3069 3070 3072 3073 3073 3075 3076 3076 3078 3080 3082 3083 3085 3087 3089 3090 3092 3093 3095 3096 3098 3099 3100 3101 3102 3104 3106 3107 3108 3109 3110 3111 3112 3113 3113 3113 3113 3109 3110 3113 3113 3114 3117 3119 3120 3119 3117 3118 3119 3120 3121 3123 3122 3121 3121 3122 3126 3129 3130 3130 3131 3131 3131
3046 3047 3048 3049 3049 3050 3051 3053 3054 3056 3057 3058 3059 3061 3062 3063 3064 3064 3065 3065 3066 3066 3067 3067 3068 3068 3069 3070 3071 3072 3073 3074 3076 3077 3078 3080 3082 3084 3086 3088 3089 3090 3092 3093 3095 3096 3098 3099 3100 3102 3103 3105 3106 3107 3108 3109 3110 3111 3112 3111 3111 3111 3108 3108 3110 3111 3114 3116 3117 3119 3119 3116 3116 3117 3116 3116 3118 3120 3120 3120 3122 3124 3127 3128 3129 3130 3131 3131
3044 3045 3046 3047 3047 3048 3049 3051 3053 3054 3055 3056 3058 3059 3060 3061 3062 3063 3063 3064 3064 3064 3065 3065 3066 3067 3068 3068 3070 3071 3072 3073 3074 3076 3077 3079 3080 3082 3084 3086 3088 3089 3090 3092 3094 3095 3097 3098 3099 3100 3102 3103 3104 3106 3107 3107 3107 3108 3109 3109 3109 3109 3108 3108 3107 3109 3113 3115 3115 3117 3118 3116 3115 3115 3115 3114 3115 3119 3119 3119 3120 3122 3124 3126 3127 3128 3130 3130
3042 3043 3044 3045 3045 3046 3048 3049 3051 3052 3053 3055 3056 3057 3058 3059 3060 3061 3061 3062 3062 3063 3064 3064 3065 3067 3066 3067 3069 3070 3071 3072 3073 3074 3076 3077 3079 3081 3083 3085 3087 3088 3089 3091 3092 3093 3095 3096 3098 3099 3100 3101 3102 3103 3104 3104 3104 3106 3107 3107 3108 3108 3108 3108 3107 3108 3112 3113 3114 3115 3115 3115 3115 3116 3117 3117 3117 3118 3119 3118 3118 3120 3122 3124 3125 3126 3127 3128
3040 3041 3042 3043 3043 3044 3046 3048 3049 3050 3052 3053 3055 3056 3057 3057 3058 3059 3059 3059 3060 3061 3062 3062 3063 3065 3066 3066 3068 3069 3069 3071 3073 3073 3075 3077 3078 3080 3082 3084 3085 3087 3088 3089 3090 3092 3093 3094 3095 3095 3096 3098 3099 3100 3101 3102 3103 3105 3107 3108 3108 3107 3106 3107 3107 3108 3110 3111 3112 3113 3113 3114 3115 3116 3118 3119 3118 3117 3117 3117 3117 3119 3120 3122 3123 3124 3125 3126
3038 3039 3040 3040 3041 3042 3044 3046 3047 3048 3050 3051 3053 3054 3055 3055 3056 3056 3056 3057 3058 3060 3060 3060 3061 3064 3065 3066 3068 3068 3068 3070 3071 3072 3074 3076 3077 3078 3081 3082 3084 3086 3086 3088 3089 3090 3092 3092 3092 3092 3094 3096 3098 3100 3100 3101 3103 3105 3106 3107 3107 3107 3106 3105 3106 3107 3109 3110 3111 3112 3112 3113 3114 3115 3116 3117 3118 3116 3114 3114 3115 3116 3118 3120 3122 3123 3124 3124
3037 3038 3038 3039 3039 3041 3043 3044 3046 3047 3048 3050 3052 3053 3052 3053 3054 3054 3054 3055 3056 3057 3058 3058 3060 3062 3065 3065 3066 3067 3068 3069 3071 3071 3073 3074 3076 3077 3079 3081 3083 3084 3084 3086 3088 3090 3090 3089 3089 3091 3094 3096 3098 3100 3100 3101 3102 3104 3105 3105 3105 3105 3106 3105 3106 3107 3109 3110 3111 3111 3111 3112 3113 3114 3115 3115 3117 3116 3114 3113 3114 3115 3117 3119 3120 3122 3123 3123
3035 3036 3037 3037 3038 3039 3041 3042 3044 3046 3047 3048 3050 3051 3051 3051 3052 3052 3052 3052 3053 3055 3056 3057 3057 3059 3063 3064 3065 3067 3068 3068 3069 3070 3071 3073 3074 3076 3077 3080 3081 3082 3084 3085 3087 3088 3088 3087 3089 3091 3094 3096 3097 3099 3100 3100 3102 3103 3104 3104 3103 3104 3106 3106 3107 3107 3108 3109 3109 3109 3110 3111 3111 3112 3113 3113 3114 3115 3114 3113 3114 3114 3115 3116 3118 3119 3121 3122
3034 3034 3035 3035 3036 3038 3039 3041 3042 3044 3045 3046 3048 3049 3049 3050 3051 3051 3051 3050 3051 3053 3053 3054 3055 3056 3061 3063 3063 3065 3067 3067 3068 3068 3070 3071 3073 3075 3076 3078 3080 3081 3083 3084 3084 3086 3086 3085 3088 3091 3093 3095 3096 3097 3098 3099 3101 3102 3103 3103 3103 3103 3105 3107 3107 3107 3108 3108 3108 3109 3109 3109 3110 3110 3111 3111 3112 3113 3113 3112 3112 3113 3114 3114 3115 3117 3119 3121
3032 3033 3033 3034 3035 3037 3038 3039 3041 3042 3044 3045 3046 3047 3048 3049 3050 3050 3050 3049 3048 3049 3050 3052 3053 3053 3057 3061 3062 3063 3065 3066 3067 3067 3068 3070 3072 3074 3075 3078 3080 3080 3082 3083 3083 3084 3084 3084 3087 3090 3091 3093 3094 3095 3096 3098 3099 3101 3102 3102 3102 3103 3103 3104 3106 3107 3107 3107 3107 3107 3107 3107 3108 3108 3108 3109 3110 3111 3112 3111 3110 3111 3113 3113 3113 3114 3116 3118
3030 3031 3032 3032 3034 3035 3036 3038 3040 3041 3043 3043 3044 3046 3047 3048 3049 3049 3049 3048 3045 3046 3048 3048 3049 3050 3054 3059 3060 3061 3064 3064 3066 3066 3066 3069 3072 3073 3075 3077 3079 3079 3081 3082 3083 3084 3083 3084 3087 3089 3090 3091 3093 3093 3094 3096 3098 3099 3100 3101 3102 3103 3102 3101 3103 3105 3105 3105 3105 3105 3105 3105 3106 3107 3107 3107 3108 3110 3111 3112 3110 3109 3110 3112 3111 3110 3112 3115
3029 3030 3030 3031 3032 3034 3035 3037 3038 3040 3040 3041 3042 3044 3045 3047 3048 3048 3048 3047 3044 3043 3044 3045 3046 3048 3050 3054 3056 3060 3063 3062 3064 3066 3065 3067 3071 3072 3074 3076 3077 3078 3080 3082 3083 3083 3082 3083 3086 3088 3088 3089 3091 3091 3092 3094 3096 3097 3099 3101 3102 3103 3103 3102 3102 3103 3103 3104 3105 3105 3106 3105 3105 3105 3105 3106 3107 3108 3109 3110 3110 3108 3107 3109 3109 3107 3108 3112
3027 3028 3029 3030 3031 3032 3034 3035 3036 3037 3038 3039 3040 3042 3044 3045 3047 3047 3047 3048 3044 3040 3041 3043 3045 3047 3048 3052 3054 3057 3059 3059 3061 3064 3064 3066 3069 3071 3073 3074 3076 3077 3079 3081 3081 3081 3081 3082 3084 3086 3087 3088 3089 3090 3091 3093 3095 3095 3098 3100 3102 3103 3104 3103 3103 3103 3102 3103 3104 3105 3107 3105 3103 3104 3105 3105 3106 3107 3108 3107 3108 3107 3105 3105 3106 3106 3108 3111
3026 3027 3027 3028 3030 3031 3032 3033 3035 3036 3037 3038 3039 3041 3042 3044 3046 3046 3048 3048 3043 3038 3040 3042 3044 3046 3048 3051 3053 3055 3056 3057 3058 3060 3062 3065 3068 3070 3071 3072 3075 3076 3078 3079 3078 3079 3080 3081 3082 3083 3085 3087 3088 3089 3091 3092 3093 3095 3098 3099 3100 3102 3104 3104 3104 3103 3102 3102 3102 3104 3106 3104 3101 3103 3105 3105 3105 3106 3106 3104 3104 3105 3105 3104 3105 3106 3108 3110
3024 3025 3026 3027 3028 3029 3031 3033 3033 3034 3035 3037 3039 3040 3041 3043 3045 3046 3048 3047 3040 3037 3040 3041 3043 3046 3047 3050 3052 3053 3055 3056 3057 3059 3062 3063 3066 3069 3070 3071 3074 3075 3076 3077 3077 3077 3078 3079 3081 3082 3083 3085 3086 3088 3089 3091 3093 3095 3097 3098 3099 3101 3102 3103 3102 3101 3100 3100 3100 3103 3106 3104 3101 3103 3104 3103 3104 3104 3104 3102 3102 3104 3105 3105 3106 3107 3108 3110
3022 3023 3024 3025 3027 3028 3030 3031 3032 3033 3034 3036 3038 3039 3041 3043 3043 3045 3048 3044 3038 3037 3039 3040 3043 3045 3047 3049 3050 3052 3053 3054 3056 3059 3061 3062 3065 3068 3069 3071 3072 3073 3074 3076 3076 3075 3076 3079 3081 3081 3081 3083 3084 3086 3088 3091 3093 3095 3096 3097 3099 3099 3100 3100 3100 3100 3099 3098 3100 3102 3104 3104 3103 3103 3102 3102 3103 3103 3103 3102 3103 3104 3104 3104 3105 3107 3108 3109
3021 3021 3023 3024 3025 3027 3028 3029 3030 3031 3034 3036 3037 3038 3040 3042 3043 3044 3044 3039 3037 3038 3039 3039 3042 3044 3046 3047 3049 3050 3052 3053 3055 3058 3059 3060 3063 3066 3067 3069 3070 3071 3072 3073 3075 3073 3074 3077 3079 3079 3080 3081 3083 3085 3088 3090 3092 3093 3095 3096 3097 3097 3097 3098 3098 3099 3099 3098 3099 3101 3103 3104 3103 3102 3101 3102 3102 3102 3102 3102 3102 3103 3104 3104 3105 3107 3108 3109
3019 3020 3021 3023 3024 3025 3027 3028 3029 3031 3034 3036 3037 3037 3039 3041 3042 3041 3038 3035 3037 3038 3038 3039 3041 3043 3045 3047 3047 3049 3050 3051 3054 3057 3058 3059 3061 3063 3065 3066 3068 3069 3069 3070 3073 3073 3072 3074 3076 3078 3079 3080 3082 3084 3086 3088 3089 3091 3093 3094 3095 3095 3097 3098 3098 3097 3097 3097 3098 3101 3102 3102 3101 3101 3101 3101 3101 3100 3101 3102 3102 3102 3103 3104 3105 3107 3108 3107
3017 3019 3020 3021 3022 3024 3025 3026 3028 3030 3032 3034 3036 3036 3038 3040 3039 3036 3035 3035 3036 3037 3037 3039 3040 3042 3044 3046 3047 3048 3049 3051 3053 3055 3057 3058 3060 3062 3064 3066 3067 3068 3068 3069 3072 3072 3071 3072 3074 3076 3077 3079 3080 3082 3084 3085 3086 3088 3089 3091 3092 3094 3097 3099 3098 3098 3097 3096 3097 3098 3100 3100 3100 3101 3101 3100 3100 3099 3100 3101 3101 3101 3102 3103 3104 3106 3107 3106
3016 3017 3018 3019 3021 3022 3023 3025 3027 3029 3030 3032 3034 3035 3037 3038 3036 3035 3034 3035 3036 3036 3037 3038 3039 3041 3043 3044 3045 3047 3048 3050 3052 3055 3056 3057 3059 3061 3063 3065 3066 3068 3069 3069 3069 3070 3070 3070 3071 3073 3075 3077 3078 3080 3082 3084 3085 3086 3088 3090 3091 3091 3095 3096 3095 3095 3095 3094 3095 3096 3097 3099 3099 3100 3100 3099 3099 3099 3098 3099 3100 3100 3101 3102 3103 3105 3105 3104
3015 3016 3017 3018 3020 3021 3022 3024 3026 3027 3028 3030 3032 3034 3034 3034 3034 3034 3035 3035 3036 3036 3036 3037 3038 3040 3041 3042 3043 3044 3045 3048 3050 3053 3055 3056 3057 3059 3061 3062 3064 3066 3067 3068 3067 3068 3069 3069 3070 3072 3073 3074 3076 3078 3081 3083 3083 3085 3087 3089 3089 3090 3092 3092 3092 3092 3092 3093 3094 3095 3096 3097 3098 3099 3099 3098 3098 3098 3098 3099 3100 3100 3100 3101 3103 3103 3103 3102
3013 3014 3016 3017 3018 3019 3021 3022 3024 3025 3027 3029 3031 3032 3031 3032 3033 3034 3036 3036 3035 3034 3035 3037 3038 3039 3040 3041 3042 3044 3044 3046 3048 3050 3052 3054 3056 3058 3059 3061 3063 3064 3064 3066 3067 3067 3067 3068 3069 3070 3071 3072 3075 3077 3079 3081 3081 3082 3084 3084 3085 3088 3090 3090 3090 3090 3091 3093 3093 3093 3095 3096 3097 3098 3098 3097 3097 3098 3099 3099 3099 3099 3100 3100 3101 3101 3100 3099
3012 3013 3015 3016 3017 3018 3019 3021 3022 3024 3026 3028 3029 3029 3030 3032 3033 3034 3036 3036 3034 3033 3035 3036 3037 3039 3040 3041 3041 3043 3044 3045 3047 3049 3050 3052 3054 3056 3058 3059 3061 3062 3063 3064 3066 3066 3066 3066 3067 3068 3069 3071 3073 3075 3077 3079 3079 3080 3081 3082 3084 3086 3088 3089 3089 3089 3090 3092 3092 3091 3093 3095 3096 3097 3097 3097 3097 3098 3098 3099 3098 3098 3098 3098 3099 3099 3098 3097
3011 3013 3014 3015 3016 3017 3018 3020 3021 3023 3025 3027 3028 3028 3030 3031 3032 3034 3036 3035 3034 3034 3034 3035 3037 3039 3039 3040 3041 3041 3043 3044 3045 3047 3049 3050 3051 3053 3055 3057 3058 3060 3062 3063 3064 3065 3066 3065 3065 3067 3068 3070 3073 3074 3075 3076 3078 3079 3080 3082 3084 3084 3085 3086 3087 3088 3090 3091 3091 3090 3091 3093 3095 3096 3096 3096 3097 3097 3097 3098 3098 3097 3097 3097 3097 3097 3096 3097
3010 3012 3013 3014 3015 3016 3017 3019 3021 3023 3024 3025 3026 3028 3030 3031 3033 3034 3035 3035 3035 3034 3033 3035 3038 3038 3038 3039 3040 3039 3040 3042 3044 3046 3048 3049 3050 3051 3054 3056 3057 3058 3060 3062 3062 3063 3065 3065 3064 3066 3068 3070 3071 3072 3072 3074 3076 3078 3079 3080 3082 3082 3083 3083 3084 3085 3087 3089 3090 3090 3091 3094 3095 3095 3095 3095 3095 3096 3096 3097 3098 3097 3097 3097 3097 3097 3096 3097
3009 3011 3012 3013 3015 3016 3017 3019 3021 3022 3023 3024 3025 3028 3030 3032 3033 3035 3035 3035 3036 3035 3034 3035 3037 3037 3037 3037 3038 3038 3039 3040 3042 3044 3046 3048 3049 3051 3053 3054 3055 3056 3057 3060 3061 3062 3064 3064 3065 3065 3067 3068 3068 3069 3071 3073 3074 3076 3076 3077 3079 3080 3081 3082 3082 3083 3084 3086 3087 3089 3092 3094 3094 3094 3095 3095 3096 3095 3094 3095 3096 3097 3097 3097 3097 3096 3096 3097
3008 3010 3012 3013 3014 3015 3016 3018 3020 3021 3023 3024 3026 3028 3030 3032 3033 3034 3034 3034 3035 3035 3035 3036 3036 3036 3037 3037 3037 3038 3040 3041 3042 3044 3045 3047 3049 3051 3052 3051 3052 3053 3054 3056 3059 3061 3062 3062 3064 3065 3065 3066 3066 3067 3070 3072 3073 3075 3075 3076 3078 3079 3080 3080 3081 3082 3083 3084 3085 3087 3091 3093 3093 3094 3095 3096 3096 3095 3094 3093 3095 3096 3097 3097 3097 3096 3096 3096
3008 3009 3011 3013 3014 3015 3017 3018 3020 3022 3023 3024 3027 3029 3031 3032 3033 3033 3033 3033 3034 3035 3036 3036 3037 3037 3038 3038 3037 3038 3040 3041 3042 3044 3044 3046 3048 3049 3049 3049 3050 3052 3052 3053 3056 3057 3058 3059 3061 3063 3063 3064 3065 3067 3069 3071 3073 3074 3075 3076 3077 3077 3078 3079 3079 3080 3081 3083 3084 3086 3089 3091 3092 3093 3094 3095 3095 3094 3093 3093 3094 3095 3096 3096 3096 3096 3096 3096
3008 3009 3010 3012 3014 3015 3017 3019 3021 3022 3023 3025 3028 3029 3031 3033 3033 3032 3033 3034 3034 3035 3036 3036 3037 3037 3037 3038 3038 3039 3040 3041 3042 3044 3044 3045 3046 3047 3047 3048 3049 3051 3051 3052 3053 3054 3056 3058 3060 3061 3063 3063 3063 3064 3067 3069 3071 3073 3074 3075 3074 3075 3076 3076 3077 3078 3079 3080 3082 3085 3089 3091 3091 3092 3094 3094 3094 3093 3092 3092 3093 3094 3095 3095 3095 3095 3095 3095
3008 3009 3010 3012 3013 3015 3016 3018 3021 3022 3023 3026 3028 3028 3030 3033 3032 3032 3033 3035 3035 3035 3036 3036 3036 3037 3037 3038 3038 3039 3040 3042 3043 3044 3045 3045 3046 3047 3047 3048 3049 3050 3051 3051 3052 3054 3055 3057 3059 3061 3062 3063 3063 3063 3064 3066 3068 3070 3071 3070 3070 3070 3072 3073 3074 3075 3077 3078 3080 3083 3087 3089 3089 3091 3093 3093 3094 3093 3092 3092 3093 3094 3094 3094 3093 3094 3095 3095
3008 3009 3010 3012 3013 3014 3016 3018 3020 3022 3024 3026 3027 3028 3030 3031 3031 3032 3033 3034 3035 3035 3035 3036 3037 3037 3037 3038 3038 3039 3040 3042 3043 3044 3044 3045 3046 3047 3048 3048 3048 3050 3051 3051 3051 3053 3055 3056 3058 3060 3061 3064 3065 3065 3065 3066 3066 3066 3067 3068 3069 3069 3069 3071 3073 3074 3076 3078 3079 3081 3084 3087 3089 3090 3090 3091 3092 3092 3092 3092 3093 3094 3094 3093 3092 3092 3093 3094
3007 3009 3011 3012 3014 3016 3018 3019 3020 3022 3024 3026 3026 3027 3029 3031 3032 3032 3032 3032 3033 3034 3035 3036 3036 3037 3037 3038 3039 3040 3041 3042 3044 3044 3043 3043 3045 3047 3047 3047 3048 3049 3050 3051 3051 3053 3055 3057 3058 3059 3061 3063 3065 3066 3067 3068 3066 3066 3066 3068 3069 3069 3069 3070 3072 3075 3077 3079 3081 3082 3084 3086 3088 3089 3089 3090 3091 3091 3091 3091 3092 3093 3093 3092 3091 3092 3092 3093
3007 3009 3011 3013 3014 3016 3018 3019 3020 3022 3024 3026 3027 3028 3029 3031 3032 3032 3032 3033 3033 3033 3035 3036 3036 3038 3038 3039 3040 3041 3041 3042 3043 3043 3043 3043 3044 3046 3046 3047 3047 3048 3049 3050 3051 3053 3055 3057 3058 3059 3061 3063 3065 3066 3067 3068 3067 3065 3066 3068 3069 3069 3069 3069 3071 3075 3079 3080 3082 3084 3085 3085 3087 3088 3088 3089 3090 3090 3091 3090 3091 3092 3091 3091 3091 3091 3091 3092
3007 3009 3011 3013 3015 3016 3017 3019 3021 3022 3024 3025 3027 3028 3029 3030 3031 3032 3032 3033 3034 3034 3035 3036 3036 3037 3039 3039 3040 3041 3042 3043 3043 3043 3044 3044 3044 3045 3046 3046 3047 3048 3049 3050 3052 3054 3055 3056 3058 3059 3061 3062 3064 3066 3067 3068 3067 3066 3067 3069 3070 3070 3070 3070 3072 3074 3078 3081 3082 3084 3086 3086 3085 3086 3087 3087 3088 3089 3089 3089 3090 3090 3090 3090 3090 3091 3091 3091
3007 3009 3012 3013 3014 3016 3018 3019 3021 3022 3023 3025 3027 3027 3028 3029 3030 3031 3032 3033 3033 3034 3035 3035 3036 3038 3039 3040 3040 3040 3041 3042 3042 3043 3044 3044 3044 3045 3046 3047 3047 3048 3049 3051 3052 3053 3055 3056 3057 3059 3060 3062 3063 3065 3065 3066 3067 3067 3068 3070 3071 3071 3071 3072 3073 3075 3078 3081 3082 3082 3084 3085 3084 3084 3085 3086 3086 3087 3088 3088 3089 3089 3089 3089 3090 3090 3091 3091
3007 3009 3011 3013 3014 3016 3016 3018 3020 3022 3023 3025 3026 3027 3028 3029 3030 3031 3032 3032 3033 3033 3034 3035 3036 3037 3037 3038 3038 3038 3039 3041 3041 3042 3043 3043 3044 3044 3045 3047 3047 3048 3049 3051 3052 3053 3054 3056 3057 3059 3060 3061 3062 3064 3065 3065 3066 3067 3068 3070 3071 3072 3072 3073 3074 3076 3077 3079 3080 3080 3081 3083 3082 3082 3083 3083 3085 3086 3087 3087 3088 3089 3089 3089 3090 3091 3091 3091
3008 3009 3011 3013 3014 3015 3016 3018 3021 3023 3023 3024 3025 3026 3027 3028 3029 3030 3031 3032 3032 3033 3034 3034 3035 3035 3036 3036 3037 3037 3037 3039 3040 3040 3041 3042 3043 3044 3045 3047 3047 3048 3049 3050 3051 3052 3053 3055 3057 3058 3059 3060 3061 3063 3064 3064 3065 3067 3068 3069 3070 3072 3073 3074 3075 3076 3077 3077 3078 3079 3080 3081 3081 3081 3081 3082 3084 3085 3086 3087 3088 3089 3089 3090 3091 3091 3092 3092
3008 3010 3011 3013 3014 3015 3017 3020 3021 3022 3023 3023 3025 3025 3026 3028 3029 3029 3030 3031 3032 3032 3033 3033 3033 3034 3035 3036 3036 3036 3036 3037 3038 3039 3040 3041 3042 3044 3045 3047 3047 3048 3048 3049 3050 3051 3052 3054 3056 3057 3059 3060 3061 3062 3063 3063 3065 3067 3068 3069 3070 3071 3073 3074 3074 3075 3076 3076 3077 3078 3079 3079 3079 3080 3081 3082 3083 3084 3085 3086 3087 3088 3089 3090 3091 3092 3092 3092